This is the latest recevied weather packets stored in our database for station/object IW8PDD-3. If no packets are shown the sender has not sent any weather packets the latest 10 day(s).
| Time | Temp. | Humidity | Pressure | Rain* | Wind** | Luminosity | Snow |
|---|---|---|---|---|---|---|---|
| 1777694195 | 15° C | 53% | 1020.1 hPa | - | - | - | - |
| 1777692992 | 15° C | 54% | 1020.1 hPa | - | - | - | - |
| 1777691788 | 15° C | 56% | 1020.2 hPa | - | - | - | - |
| 1777690585 | 15° C | 57% | 1020.3 hPa | - | - | - | - |
| 1777689427 | 14.44° C | 59% | 1020.3 hPa | - | - | - | - |
| 1777689381 | 14.44° C | 59% | 1020.3 hPa | - | - | - | - |
| 1777688178 | 14.44° C | 62% | 1020.3 hPa | - | - | - | - |
| 1777686974 | 14.44° C | 61% | 1020.3 hPa | - | - | - | - |
| 1777685771 | 15° C | 62% | 1020.1 hPa | - | - | - | - |
| 1777683364 | 15° C | 63% | 1020.3 hPa | - | - | - | - |
| 1777682160 | 15° C | 63% | 1020.1 hPa | - | - | - | - |
| 1777680957 | 15° C | 63% | 1020.1 hPa | - | - | - | - |
| 1777679754 | 15° C | 63% | 1020.1 hPa | - | - | - | - |
| 1777678550 | 15.56° C | 63% | 1020.2 hPa | - | - | - | - |
| 1777677347 | 16.11° C | 63% | 1020.4 hPa | - | - | - | - |
| 1777676143 | 16.11° C | 63% | 1020.7 hPa | - | - | - | - |
| 1777674940 | 16.11° C | 64% | 1020.7 hPa | - | - | - | - |
| 1777673736 | 16.11° C | 64% | 1020.6 hPa | - | - | - | - |
| 1777672532 | 16.11° C | 64% | 1020.7 hPa | - | - | - | - |
| 1777667716 | 16.67° C | 66% | 1020.6 hPa | - | - | - | - |
| 1777666512 | 16.67° C | 66% | 1020.5 hPa | - | - | - | - |
| 1777664105 | 17.22° C | 67% | 1020.4 hPa | - | - | - | - |
| 1777662901 | 17.22° C | 69% | 1020.2 hPa | - | - | - | - |
| 1777661697 | 17.22° C | 69% | 1020 hPa | - | - | - | - |
| 1777660494 | 17.22° C | 69% | 1019.8 hPa | - | - | - | - |
* Rain since midnight (hover to see other rain measurements)
** Current wind speed in m/s (hover to see current wind gust speed)